Location: Moscow
(55.7500°N, 37.5830°E)
Time: 19:11:23
(UTC+03:00)

Tiros 1 - Pass Details

Date: 09 December 2021
Orbit: 629 x 664 km, 48.4° (Epoch: 19 January)

Event Time Altitude Azimuth Distance (km) Brightness Sun altitude
Rises 17:15:05 0° 211° (SSW) 2,910 11.6 -9.9°
Reaches altitude 10° 17:18:02 10° 192° (SSW) 2,008 10.2 -10.3°
Maximum altitude 17:21:04 17° 151° (SSE) 1,580 9.1 -10.6°
Drops below altitude 10° 17:24:08 10° 109° (ESE) 2,024 9.3 -11.0°
Enters shadow 17:24:39 - 105° (ESE) 2,167 9.4 -11.1°
